Regional Weather Roundup
Issued by NWS

Home | Current Version | Previous Version | Graphics & Text | Print | Product List | Glossary On
Versions: 1 2 3 4 5 6 7 8 9 10 11 12 13 14 15 16 17 18 19 20 21 22 23 24 25 26 27 28
000
ASUS45 KSLC 241210
RWRUT

UTAH REGIONAL WEATHER ROUNDUP
NATIONAL WEATHER SERVICE SALT LAKE CITY UT
600 AM MDT SAT JUN 24 2017

UTZ001>011-023>025-241300-

NORTHERN UTAH

CITY           SKY/WX    TMP DP  RH WIND       PRES   REMARKS
BRIGHAM CITY   CLEAR     55  37  51 NW3       30.18S
HILL AFB       CLEAR     56  35  45 E18       30.20R
LOGAN          CLEAR     50  42  74 N3        30.22R
OGDEN          CLEAR     57  37  47 S5        30.18R
SALT LAKE CITY CLEAR     62  40  44 S3        30.17R
TOOELE VALLEY  CLEAR     54  36  50 S8        30.19R
WENDOVER         N/A     66  30  26 S5        30.19R
HEBER CITY     CLEAR     41  34  75 CALM      30.28R

$$

UTZ011>015-024>027-241300-

CENTRAL/NORTHEAST UTAH

CITY           SKY/WX    TMP DP  RH WIND       PRES   REMARKS
PROVO AIRPORT  CLEAR     51  36  56 E6        30.22R
MOAB/CANYONLAN CLEAR     63  22  20 SW5       30.10R
DELTA          CLEAR     52  25  35 SE6       30.20R
PRICE          PTCLDY    63  11  13 N3        30.22R
RICHFIELD      CLEAR     48  34  57 CALM      30.27R
ROOSEVELT      CLEAR     46  32  57 W7        30.23R
VERNAL         CLEAR     56  32  40 NE5       30.22R

$$

UTZ013>016-019>022-027-241300-

SOUTHERN UTAH

CITY           SKY/WX    TMP DP  RH WIND       PRES   REMARKS
BRYCE CANYON   PTCLDY    40  23  50 W6        30.37R
CEDAR CITY     CLEAR     53  25  33 CALM      30.22R
MILFORD        CLEAR     55  19  24 CALM      30.20R
ST GEORGE      SUNNY     81  25  12 N8        29.97R
HANKSVILLE     CLEAR     61  19  20 CALM      30.15R
KANAB          CLEAR     70  23  17 N9        30.17R
BLANDING       CLEAR     62  27  26 N3        30.25R

$$

REGIONAL REPORTS     COLORADO/ARIZONA

CITY           SKY/WX    TMP DP  RH WIND       PRES   REMARKS
CRAIG, CO      CLOUDY    38  33  82 CALM      30.31R
GRAND JUNCTION CLEAR     61  23  23 SE3       30.14R
RIFLE, CO      CLEAR     50  29  44 SE3       30.23R
MONTROSE, CO   CLOUDY    52  31  44 S8        30.23R
CORTEZ, CO     CLOUDY    46  30  53 NE5       30.22R
COLORADO CITY    N/A     55  30  38 S7        30.14F
PAGE, AZ       CLEAR     75  22  13 N3        30.07R
GRAND CANYON   CLEAR     47  28  47 CALM      30.26R
KINGMAN, AZ    CLEAR     73  35  25 SE5       29.95R
FLAGSTAFF, AZ  CLEAR     52  29  41 CALM      30.27R

$$

REGIONAL REPORTS    NEVADA/IDAHO/WYOMING

CITY           SKY/WX    TMP DP  RH WIND       PRES   REMARKS
LAS VEGAS, NV  CLEAR     89  28  11 CALM      29.85R
ELY, NY        PTCLDY    43  19  38 S12       30.31R
ELKO, NV       PTCLDY    47  35  63 S3        30.26R
POCATELLO, ID  CLEAR     42  38  85 CALM      30.24R
BURLEY, ID     CLEAR     48  37  65 S3        30.20R
FORT BRIDGER,    N/A     45  30  57 CALM      30.39R
EVANSTON, WY   CLOUDY    47  31  53 SE9       30.36R
ROCK SPRINGS,  CLOUDY    45  29  53 CALM      30.36R
KEMMERER, WY     N/A     41  30  65 N9        30.38R

$$




USA.gov is the U.S. government's official web portal to all federal, state and local government web resources and services.